GFSFLT2_850_thetae_006.txt.gz
Theta_e
329 327 324 322 319 317 315 313 311 310 311 314 313 313 313 313 311 311 311 311 312 312 311 311 311 311 311 310 309 308 308 309
321 318 316 315 315 314 310 309 309 311 314 317 315 315 314 313 312 312 312 313 313 314 314 314 314 312 311 311 312 312 311 309
314 312 311 312 312 309 309 309 311 315 317 316 315 314 314 313 313 313 313 314 315 316 316 317 316 317 315 315 314 312 312 312
316 312 308 309 309 311 312 315 314 316 317 316 315 314 314 313 314 314 314 315 316 316 316 316 316 316 316 315 316 316 316 317
317 316 314 311 314 317 316 318 316 318 315 316 316 315 313 314 314 314 315 315 315 314 313 313 313 313 312 314 314 313 313 316
321 316 318 321 320 321 321 320 320 320 318 313 313 315 315 316 316 316 315 314 314 313 312 312 312 312 312 312 312 313 314 315
325 320 317 321 324 325 324 325 324 323 323 319 318 318 318 319 319 319 319 316 313 313 312 312 311 312 312 311 312 315 315 315
326 326 319 324 325 326 326 326 326 325 325 322 322 320 320 320 321 321 318 316 314 312 311 310 311 311 310 311 313 313 313 313
328 328 323 326 326 326 326 325 326 326 325 325 322 322 321 321 321 319 316 313 311 311 310 310 309 309 309 309 309 309 309 309
329 329 326 325 324 324 321 323 324 324 323 322 322 320 320 318 318 318 313 311 310 308 309 309 308 308 308 308 308 308 306 304
329 329 327 324 322 323 322 323 322 323 322 321 319 317 315 313 312 311 310 307 307 307 308 308 307 306 306 306 306 305 303 303
328 328 327 326 325 324 320 317 317 318 318 315 313 312 311 311 310 307 307 306 306 307 307 306 305 304 303 303 303 302 301 300
326 326 326 325 322 318 317 318 319 319 312 312 311 309 308 307 307 307 307 306 306 305 304 302 301 300 298 299 300 300 299 298
322 321 321 319 319 318 318 315 311 311 311 311 309 309 308 307 307 306 305 303 302 301 300 297 295 294 294 293 297 296 298 299
315 313 313 313 313 312 313 312 311 311 310 309 309 308 307 306 305 303 302 303 303 302 298 296 296 295 293 296 298 298 297 296
313 313 313 313 313 313 313 313 312 311 310 309 307 306 305 304 303 303 303 302 300 298 297 296 296 293 293 296 297 297 296 296
314 314 314 314 313 313 312 312 311 310 308 307 305 304 303 300 299 301 300 300 299 298 298 297 293 292 292 292 292 292 292 293
314 314 314 313 313 312 311 309 308 306 304 304 304 302 301 300 300 301 300 299 296 294 293 292 291 290 289 289 288 288 288 289
314 313 313 312 311 310 308 306 303 302 303 303 303 302 301 300 300 301 299 296 294 293 292 289 289 288 287 287 287 287 286 286
312 311 310 309 308 306 304 303 301 301 302 301 300 299 299 300 299 300 299 297 298 292 290 288 288 288 287 287 287 286 286 286

GFSFLT2_850_thetae_009.txt.gz
Theta_e
336 334 330 326 324 319 316 314 310 311 311 313 312 312 312 311 312 311 312 312 312 313 313 313 312 312 311 311 310 310 310 311
331 327 326 324 321 318 313 311 310 312 314 314 313 313 312 312 312 312 313 313 314 314 315 315 315 314 314 313 313 313 312 310
322 321 320 318 316 313 311 310 311 313 316 314 314 314 313 312 313 313 313 314 314 315 315 315 315 314 313 313 313 313 313 313
316 315 314 315 314 311 311 311 313 318 318 315 315 315 313 314 314 314 314 315 314 314 314 314 313 312 312 312 312 312 311 312
314 311 311 313 313 312 313 315 319 319 319 318 317 317 316 314 314 315 315 315 314 313 312 312 312 311 311 311 311 311 310 313
317 314 312 311 312 315 318 322 320 323 319 318 320 318 315 316 317 317 318 317 315 314 313 312 311 311 311 311 310 309 311 313
320 319 319 316 317 321 323 324 325 325 324 321 320 319 319 318 320 320 320 319 316 315 313 311 310 310 310 310 309 311 312 313
326 323 321 322 323 324 325 324 324 324 324 324 322 321 320 320 320 320 320 319 317 313 311 309 308 308 309 309 309 309 309 310
328 327 325 323 325 325 324 319 319 321 324 324 322 321 320 320 321 321 319 314 312 310 308 307 308 308 308 308 308 307 307 307
328 327 327 325 326 324 322 320 321 322 323 322 320 319 319 317 317 314 311 310 308 307 306 307 307 307 307 307 307 306 306 305
328 328 326 326 325 324 321 322 322 320 319 318 318 314 312 311 311 310 308 307 308 307 306 306 305 305 305 305 305 304 303 302
323 326 326 325 325 324 324 321 315 319 319 318 313 312 311 309 308 307 308 307 306 305 304 303 302 301 300 300 302 301 299 300
327 327 326 324 322 321 319 316 319 317 312 311 311 310 309 309 307 307 306 305 305 303 303 303 302 300 298 299 297 296 298 299
321 320 319 318 319 318 318 316 311 311 311 310 310 309 308 307 306 305 303 303 303 302 301 299 298 297 296 297 298 298 299 298
313 313 315 313 312 312 312 312 311 311 311 310 309 308 306 305 303 302 300 299 300 299 298 298 298 297 295 296 297 297 297 297
312 312 313 313 313 312 313 312 312 311 310 308 306 305 304 303 302 300 298 300 300 299 298 297 296 295 294 295 293 295 294 294
313 313 313 313 312 312 312 311 310 308 305 304 304 304 303 302 300 297 296 299 299 299 297 293 292 292 290 290 292 291 292 291
313 313 313 313 312 311 310 309 306 305 303 303 303 302 300 297 295 295 298 299 299 297 296 297 295 292 288 288 289 289 289 289
313 313 313 311 310 307 306 305 304 301 300 299 298 296 295 294 294 297 299 299 297 296 295 293 289 288 288 288 288 288 288 288
313 312 309 307 305 302 300 300 298 296 295 294 293 292 291 290 291 297 299 298 296 297 292 290 289 289 288 288 288 288 287 287

GFSFLT2_850_thetae_012.txt.gz
Theta_e
336 335 333 331 327 324 321 318 312 312 313 311 310 313 313 312 311 312 312 312 313 314 314 314 314 313 312 312 312 313 317 316
335 334 331 328 326 323 319 316 312 314 314 313 314 314 312 312 312 312 313 314 315 315 315 315 314 313 312 312 312 318 318 317
334 332 332 331 332 322 317 315 313 314 317 316 316 323 321 319 313 313 314 314 315 315 315 314 313 318 316 312 316 317 317 317
331 329 327 326 329 325 319 319 324 325 326 321 325 320 320 316 315 314 314 315 315 314 313 313 319 319 318 316 316 316 316 316
329 322 321 325 328 326 324 324 323 323 321 322 325 322 325 325 323 322 321 317 320 318 319 319 315 314 316 315 314 314 314 314
317 314 316 323 324 323 319 324 324 327 325 320 322 324 326 324 323 322 319 320 317 317 318 315 314 313 310 311 309 310 311 312
321 317 318 314 316 319 321 324 323 324 323 321 317 319 319 322 322 321 320 320 318 317 317 316 314 313 313 310 310 309 309 310
321 319 318 315 319 321 324 325 324 322 324 324 323 320 319 321 321 320 318 318 317 315 314 311 312 311 310 310 308 308 308 309
326 323 321 321 322 323 322 322 320 319 320 321 322 322 320 321 320 320 316 315 312 311 310 311 311 310 309 309 308 308 307 308
328 328 326 323 324 324 322 320 319 320 321 322 321 320 319 318 315 312 311 309 308 310 309 309 309 308 307 307 307 306 305 308
328 328 328 326 324 323 322 321 321 322 319 319 319 316 312 311 310 308 307 308 308 308 307 306 306 306 305 304 304 305 304 305
326 326 327 326 325 325 323 322 318 318 319 316 312 311 310 308 309 308 307 307 307 306 306 305 305 304 304 304 304 303 303 304
324 327 327 325 324 321 320 318 318 318 313 312 311 310 308 308 307 307 306 306 306 305 304 304 303 303 303 301 300 300 302 303
326 325 323 323 321 319 319 319 317 311 311 311 310 309 308 307 307 306 305 305 304 304 302 301 300 301 301 300 300 300 300 301
323 321 320 319 317 315 313 312 311 311 310 309 308 307 306 305 305 304 303 303 301 302 301 301 300 300 299 299 299 299 298 298
318 317 314 312 312 313 313 314 314 311 308 307 306 305 304 304 304 301 300 300 300 301 299 299 298 298 297 297 296 296 297 296
313 312 312 312 312 312 312 311 309 307 307 306 306 306 305 304 302 301 300 300 300 300 299 297 297 297 296 295 295 294 293 293
312 312 312 312 312 311 309 306 305 305 304 303 301 299 298 297 297 300 300 299 300 298 297 297 296 295 293 292 292 292 291 291
311 311 311 311 308 305 302 301 299 299 297 296 296 295 295 295 295 297 299 299 298 298 296 296 294 293 292 291 291 291 290 290
310 310 307 305 302 301 300 298 297 296 295 294 295 294 294 294 296 297 298 298 297 296 296 295 293 292 291 291 291 290 290 290

GFSFLT2_850_thetae_018.txt.gz
Theta_e
329 325 334 331 330 326 322 316 310 312 310 309 312 312 311 311 312 312 313 314 314 314 314 313 315 320 319 316 318 318 316 319
332 333 332 329 326 322 319 313 311 312 311 312 313 313 313 317 315 313 313 314 315 314 314 314 320 322 320 317 317 317 317 317
333 333 330 326 323 320 316 312 313 316 314 321 326 326 326 326 325 313 314 314 315 317 319 320 321 321 320 318 318 317 315 315
331 329 329 330 322 322 316 325 327 329 323 327 328 325 324 321 323 324 325 322 323 323 322 321 321 321 320 319 318 315 314 314
330 330 331 330 324 324 325 326 325 324 322 329 327 325 328 326 326 325 325 324 324 322 322 321 320 319 317 316 315 314 313 313
331 328 329 327 325 326 326 326 329 329 326 326 329 327 328 326 325 325 324 323 322 321 321 320 319 317 314 314 313 314 312 312
319 324 330 326 326 325 328 327 325 321 320 323 325 326 325 324 320 320 319 322 320 319 319 318 316 313 314 313 312 312 311 311
321 330 326 327 326 328 324 323 319 319 318 320 319 319 321 320 321 320 320 320 320 317 313 313 313 312 311 311 311 310 309 309
330 328 324 328 325 323 324 321 321 321 319 319 318 319 321 322 322 320 320 319 313 312 312 312 311 310 309 309 309 308 307 306
331 329 327 329 325 324 324 321 321 320 319 320 320 320 319 318 316 316 315 310 312 312 310 310 310 309 308 306 306 306 306 305
331 330 329 329 325 324 324 322 321 321 322 320 317 315 313 313 314 313 311 310 310 310 310 310 308 307 305 304 304 305 304 304
332 330 331 329 324 324 324 324 324 321 319 317 315 313 311 311 312 311 311 310 310 309 308 307 306 305 302 302 303 304 303 302
333 331 329 329 325 326 326 322 320 319 317 314 312 311 311 310 310 311 310 309 308 307 305 304 303 303 302 302 302 302 302 301
333 331 327 327 327 326 321 321 320 318 315 312 312 311 311 310 309 309 308 307 305 303 303 302 303 303 301 301 301 300 300 300
331 328 327 326 325 322 321 321 319 315 314 312 312 311 309 308 308 306 304 304 303 302 301 302 302 302 300 300 300 300 299 298
329 329 328 324 322 321 320 317 316 315 313 312 311 310 309 306 303 302 301 300 300 301 302 302 301 301 300 299 299 298 296 296
327 324 323 321 318 318 318 316 314 313 311 309 307 305 303 299 298 298 296 295 297 300 301 301 301 299 300 299 297 296 295 294
322 319 317 317 317 317 316 313 311 309 309 305 306 299 298 298 297 295 295 297 298 300 301 300 300 299 298 298 295 294 294 293
317 316 316 316 315 315 314 311 306 310 310 303 299 297 297 296 296 295 295 297 299 300 300 299 297 298 297 295 294 294 293 293
316 316 315 313 311 309 307 309 311 307 301 297 296 296 295 295 295 293 295 298 299 298 297 297 296 296 296 294 294 293 293 292

GFSFLT2_850_thetae_021.txt.gz
Theta_e
331 329 322 330 328 323 317 311 310 310 308 310 311 311 310 311 312 313 314 314 314 314 314 318 321 321 318 317 317 315 315 318
324 322 331 329 325 320 315 309 311 310 311 312 311 311 313 312 312 312 314 314 314 316 319 320 321 321 320 318 317 317 315 314
322 327 329 326 321 317 312 310 312 312 317 318 319 321 321 324 319 316 318 321 321 322 321 321 321 320 319 319 318 316 314 314
329 329 328 323 318 313 311 317 317 317 326 325 324 324 323 325 324 325 325 324 324 322 321 321 320 319 318 316 315 314 314 313
329 327 327 321 315 318 321 321 323 323 325 327 326 326 327 326 325 325 324 323 323 321 321 320 319 317 315 314 314 313 313 312
329 329 327 322 324 326 328 328 323 319 328 329 326 327 327 326 325 324 322 323 322 321 321 320 319 318 314 313 312 311 311 310
330 330 327 325 326 328 326 326 325 325 321 326 328 327 325 321 323 321 320 320 321 320 318 315 314 313 312 312 311 311 310 309
330 329 326 326 327 326 325 323 323 321 319 320 323 319 318 320 319 321 320 320 320 317 313 312 312 311 311 310 309 308 309 308
326 329 326 326 325 325 325 322 320 321 320 319 319 320 321 321 321 321 319 316 311 311 311 310 310 310 309 306 304 306 306 306
327 326 325 326 325 326 322 320 321 320 320 320 320 319 320 319 317 314 313 311 310 310 310 310 310 309 304 302 303 304 303 304
327 323 324 324 324 324 322 321 321 321 322 320 318 314 312 311 312 312 311 310 310 310 310 309 307 302 303 301 300 303 303 302
329 326 326 326 327 324 323 323 323 322 320 318 315 311 311 311 311 311 311 310 310 309 308 305 301 302 300 301 301 302 302 301
330 329 328 328 327 323 324 325 322 319 317 316 312 311 311 311 311 311 310 309 308 306 301 300 300 299 301 301 300 297 300 301
331 330 328 329 325 324 325 321 319 318 316 314 311 311 311 310 310 308 306 303 301 300 299 298 299 301 302 301 299 299 299 299
331 331 330 327 326 324 321 320 319 318 315 313 312 311 311 309 308 306 303 302 300 299 297 299 302 302 301 300 299 298 297 297
331 329 326 326 327 321 321 321 319 316 314 312 311 312 310 308 307 304 300 297 296 295 296 299 301 301 300 300 299 298 296 295
328 327 328 327 322 321 321 319 317 314 313 312 311 308 308 306 303 297 296 294 293 295 299 300 301 301 300 299 299 298 296 294
327 327 323 322 321 320 318 317 316 314 313 312 309 310 305 298 296 295 294 293 294 297 299 300 300 300 299 297 297 295 294 293
326 323 322 321 318 318 317 316 315 314 310 310 312 304 297 296 294 294 293 293 296 298 298 298 299 297 296 296 296 294 294 293
322 321 320 318 317 317 316 315 313 309 310 310 301 296 295 294 294 293 292 294 297 298 298 295 296 296 295 295 295 294 293 293

GFSFLT2_850_thetae_024.txt.gz
Theta_e
333 329 324 325 323 318 314 310 309 309 309 311 310 311 312 313 313 314 314 314 314 316 319 320 320 319 318 317 317 316 314 314
325 322 323 323 322 316 310 310 308 309 311 311 310 310 311 312 313 314 314 314 319 321 320 320 320 320 319 318 317 316 314 313
322 321 327 325 319 313 310 310 309 311 311 312 316 318 320 316 317 322 323 322 322 321 321 321 321 320 319 318 315 314 313 313
321 323 322 323 315 311 311 311 315 317 319 320 322 322 324 325 325 325 324 323 323 322 321 321 319 318 317 316 314 313 313 313
327 328 326 319 312 312 314 314 325 326 326 326 325 326 321 325 325 324 323 323 323 322 321 319 319 318 317 315 313 312 311 311
328 327 322 314 317 318 320 319 324 325 327 326 325 327 326 325 324 323 322 322 321 321 321 320 319 318 315 312 312 312 311 310
327 325 321 319 319 321 323 321 322 326 328 328 326 326 326 325 325 324 320 319 321 321 320 319 314 312 312 311 311 310 309 308
328 325 324 324 324 325 326 328 325 324 323 325 326 324 320 320 322 322 319 320 320 319 317 312 311 310 310 310 308 303 304 306
329 327 325 326 326 326 325 329 327 322 320 320 320 319 319 319 320 321 320 317 314 311 310 310 310 309 309 309 301 303 306 305
330 327 326 326 326 326 325 326 320 320 320 319 319 319 320 320 318 315 312 311 310 310 310 310 310 309 303 301 299 301 303 303
328 326 326 326 326 326 326 324 321 321 321 319 317 316 314 312 311 311 311 311 310 310 309 309 307 302 301 300 299 301 302 302
323 326 326 325 326 326 324 321 321 322 321 319 314 312 310 311 311 311 310 310 310 309 307 303 299 298 297 299 301 300 300 300
323 321 319 324 327 326 325 321 322 323 321 318 315 311 311 311 311 310 310 309 307 302 300 298 296 296 299 300 300 298 299 299
328 325 323 325 325 326 323 323 323 322 318 316 313 311 311 311 311 309 309 306 301 299 298 296 295 299 301 301 300 298 299 298
330 328 328 327 328 327 323 324 323 319 317 316 312 311 312 312 311 311 309 303 300 297 296 295 297 299 300 300 299 298 297 297
329 330 329 329 329 324 324 322 319 318 317 315 312 312 312 312 310 309 306 300 296 294 294 295 298 300 300 300 299 299 298 296
330 330 329 330 325 325 321 319 319 319 317 314 313 312 311 308 307 303 298 295 294 293 294 295 299 300 300 299 299 297 296 296
330 329 330 327 326 323 321 321 320 318 315 313 313 310 306 305 302 297 295 294 293 293 295 297 298 297 298 297 296 296 295 294
328 326 327 327 328 322 321 321 320 317 315 313 311 308 306 299 296 294 294 293 292 293 295 297 297 296 296 295 295 295 295 294
327 326 326 325 322 321 320 318 315 313 312 309 308 303 298 296 296 293 293 292 292 292 293 296 296 296 296 295 295 294 295 294

GFSFLT2_850_thetae_027.txt.gz
Theta_e
330 331 329 322 315 312 310 309 309 308 310 310 311 312 313 313 314 314 314 314 316 318 318 319 319 319 318 318 317 316 314 313
331 328 322 317 315 313 311 309 309 309 310 311 311 312 313 314 314 314 314 317 317 319 319 320 320 320 319 318 317 315 313 312
323 321 322 321 320 314 311 308 309 311 310 311 313 314 312 313 315 318 317 319 320 320 320 320 321 320 319 317 315 314 313 312
322 320 321 319 315 312 310 309 311 311 316 319 321 320 318 320 322 321 322 322 322 321 321 320 320 319 317 316 316 314 312 312
323 323 319 318 312 311 310 312 317 319 321 323 323 322 323 324 324 323 323 322 322 322 321 320 319 318 317 314 313 312 311 310
322 320 320 317 312 312 314 320 324 324 325 324 323 320 322 324 324 323 323 322 321 321 320 320 318 315 313 312 311 311 310 310
326 326 322 314 316 314 322 325 325 324 325 324 324 324 324 323 324 323 321 319 320 321 320 318 315 312 311 311 311 309 306 304
327 326 319 317 324 326 322 321 323 325 326 326 325 325 325 324 325 324 322 320 319 319 318 314 310 310 309 309 309 307 301 304
327 323 318 323 324 326 325 322 323 326 326 326 327 326 325 320 320 321 320 319 317 313 310 310 310 309 309 307 301 298 300 302
325 323 323 325 326 326 326 328 327 325 321 322 322 321 319 320 320 320 317 312 310 310 310 309 309 307 302 299 298 299 302 302
327 325 324 325 325 326 327 329 325 320 321 320 319 319 320 319 316 311 311 310 310 310 309 307 303 299 297 297 299 301 300 301
328 327 326 326 326 326 327 326 321 321 321 320 318 317 314 312 311 311 310 310 309 307 304 300 298 296 296 298 299 299 299 299
323 326 326 325 326 326 327 325 323 321 321 320 317 313 311 311 311 310 310 309 310 308 302 298 297 296 296 298 298 299 299 299
324 325 325 326 325 325 326 325 322 321 322 320 315 312 311 311 311 310 310 311 310 309 300 296 295 295 296 297 299 298 298 298
321 319 323 325 325 325 326 325 322 322 321 317 314 312 311 311 311 310 310 310 310 302 296 294 294 296 297 298 298 298 298 297
322 321 325 323 324 326 326 325 323 322 321 317 315 312 311 311 311 310 309 309 304 296 294 294 294 297 299 300 299 299 298 297
327 327 328 325 325 326 327 326 323 323 319 316 314 312 312 312 310 307 306 301 296 294 293 294 296 297 298 298 298 297 296 295
328 329 328 328 327 327 326 324 324 321 317 315 314 313 312 311 306 304 301 296 296 293 293 294 296 297 296 295 295 296 296 295
329 329 328 328 328 329 324 325 323 319 319 317 315 314 311 305 302 299 301 299 293 292 292 293 296 296 295 296 295 295 295 294
329 329 328 328 329 326 326 326 324 320 318 316 314 311 305 302 306 304 294 293 292 291 292 293 295 295 295 294 294 294 294 293

GFSFLT2_850_thetae_030.txt.gz
Theta_e
332 329 329 324 314 310 310 308 308 310 310 310 311 312 313 313 313 314 315 316 317 318 319 319 319 319 318 317 317 315 313 311
330 330 324 316 311 310 309 308 309 310 310 311 312 313 313 314 314 314 315 316 317 318 319 320 320 320 319 318 317 316 314 311
328 322 315 314 311 310 308 308 309 310 310 312 312 313 314 314 314 315 316 316 317 320 320 320 320 319 318 317 316 315 312 311
318 317 318 317 314 316 314 309 310 310 311 312 312 312 313 314 317 317 318 320 321 321 321 320 319 318 317 316 314 312 311 310
320 319 319 319 315 312 308 310 311 311 312 318 314 312 317 318 320 322 322 322 322 321 321 320 319 318 316 314 312 311 310 310
316 318 318 316 313 311 309 312 311 319 322 321 321 321 321 323 323 323 323 322 322 321 320 320 318 316 312 311 311 310 310 309
321 319 318 317 313 312 312 316 319 322 322 322 321 321 322 324 324 323 322 321 320 320 320 318 315 311 310 309 309 308 307 304
319 318 321 317 313 312 314 320 324 323 325 324 324 325 324 324 324 323 322 321 319 319 317 313 310 309 309 308 307 304 299 298
324 325 323 315 315 314 323 325 326 326 325 325 325 325 325 325 324 323 322 319 318 313 310 310 309 308 308 303 299 297 298 299
326 325 320 316 322 324 322 323 324 325 324 324 325 326 326 324 319 319 319 316 310 310 310 309 307 302 299 297 297 298 299 299
326 324 319 317 324 326 327 326 324 325 324 321 322 322 321 319 320 319 312 310 310 310 308 303 300 298 296 296 297 298 298 299
326 323 321 322 325 326 326 327 327 325 320 320 319 319 320 319 316 311 310 310 309 307 304 301 298 296 296 296 297 297 298 299
326 325 323 324 325 325 326 325 325 321 320 320 319 318 317 314 311 310 310 309 307 306 302 298 296 296 295 296 296 298 298 298
325 326 325 325 325 325 325 326 324 322 321 320 317 314 312 311 311 310 309 308 307 305 301 298 296 295 295 296 297 297 298 298
324 325 326 327 326 326 326 326 324 322 320 319 317 313 311 310 310 310 308 307 304 301 299 299 296 295 295 296 298 297 297 297
323 321 321 324 325 325 326 326 325 323 321 319 316 314 312 311 310 309 307 306 301 300 304 299 295 294 295 296 296 298 298 297
323 324 323 324 324 325 326 326 325 323 320 318 316 314 313 311 310 308 305 307 308 312 310 296 293 294 295 295 295 295 296 295
326 324 325 324 323 325 326 326 324 322 321 318 316 315 313 310 308 306 305 309 311 311 296 293 292 293 294 294 295 295 295 294
329 325 326 326 324 325 326 325 325 323 323 320 318 315 314 311 309 308 307 309 310 298 293 292 292 293 294 294 294 294 293 293
328 327 326 325 326 327 326 327 325 323 323 321 318 318 315 312 309 306 309 311 301 296 293 292 292 293 293 293 293 293 293 293

GFSFLT2_850_thetae_033.txt.gz
Theta_e
332 329 328 326 313 310 308 308 309 310 310 311 313 313 313 314 316 317 318 318 318 318 319 319 319 319 318 317 316 316 312 310
333 328 328 319 313 311 308 308 310 310 310 312 313 313 313 313 314 315 317 318 319 319 319 320 320 319 318 317 316 315 311 310
330 328 322 314 312 309 308 310 310 310 311 312 313 313 314 314 314 314 316 319 320 320 320 320 319 318 318 317 315 312 311 310
326 321 315 311 311 308 309 310 310 310 311 312 313 314 314 314 314 315 318 321 321 321 320 320 319 319 317 315 313 311 310 310
316 312 311 311 309 311 311 310 310 311 312 312 313 314 314 315 317 320 321 322 322 321 320 320 319 317 316 314 310 310 310 309
315 316 316 317 317 318 312 311 311 311 312 313 312 313 315 319 322 323 322 322 322 320 320 320 319 318 314 310 309 309 308 306
319 318 318 317 313 311 309 311 311 311 317 317 317 319 322 323 323 323 322 322 320 320 319 319 317 312 309 309 308 306 303 300
318 318 317 315 313 312 311 312 315 320 322 322 322 323 322 323 323 323 322 321 320 319 318 313 310 309 308 306 302 299 298 298
317 317 317 316 315 313 311 317 319 323 324 323 324 324 324 324 324 323 322 321 319 317 310 310 309 307 303 299 297 297 298 298
318 319 322 320 314 314 313 318 324 325 325 324 324 325 325 325 325 322 319 319 315 310 310 309 305 301 298 297 297 298 298 298
320 323 324 319 314 315 319 323 324 326 324 323 323 323 325 325 322 319 319 314 310 310 309 307 303 299 297 296 297 297 297 298
326 326 324 317 318 323 323 324 325 324 324 322 321 321 321 320 319 319 314 310 310 309 308 303 298 296 296 296 296 297 298 298
326 326 324 320 318 324 325 326 325 325 324 320 320 319 319 319 318 314 311 310 309 309 305 297 296 297 296 296 297 297 297 298
326 326 324 320 319 323 325 325 326 326 323 320 320 319 318 317 314 311 310 310 308 306 301 301 302 300 297 296 300 298 297 297
326 326 326 323 322 324 325 325 326 325 321 320 319 318 316 314 311 311 310 308 306 302 308 311 304 305 297 295 299 299 297 297
324 324 324 326 325 324 324 325 325 325 322 321 319 317 313 312 311 310 309 307 305 308 310 310 308 296 295 294 294 294 298 297
323 322 324 326 324 325 324 323 324 324 322 320 317 315 313 311 310 310 310 308 308 312 310 302 306 295 295 293 293 294 294 296
327 327 325 325 325 323 323 325 325 325 323 321 318 316 313 312 311 310 310 309 308 310 311 308 295 297 293 293 294 295 295 295
328 328 326 325 322 323 326 326 326 326 324 323 320 317 316 316 313 311 311 307 309 310 306 297 296 293 293 293 292 292 293 294
329 328 326 322 323 324 326 326 326 325 325 324 321 320 318 314 311 309 307 306 308 298 299 295 295 295 294 293 293 292 292 293